Terminal Aerodrome Forecast
Issued by NWS

Home | Current Version | Previous Version | Text Only | Print | Product List | Glossary On
Versions: 1 2 3 4 5 6 7 8 9 10 11 12 13 14 15 16 17 18 19 20 21 22 23 24 25
239
FTUS45 KPSR 270307 AAA
TAFPHX
TAF AMD
KPHX 270307Z 2703/2724 22006KT P6SM SKC
     FM270800 11006KT P6SM SKC
     FM271900 26008KT P6SM SKC=

USA.gov is the U.S. government's official web portal to all federal, state and local government web resources and services.